Regional Weather Roundup
Issued by NWS

Home | Current Version | Previous Version | Text Only | Print | Product List | Glossary On
Versions: 1 2 3 4 5 6 7 8 9 10 11 12 13 14 15 16 17 18 19 20 21 22 23 24 25 26 27 28 29 30 31 32 33 34 35 36 37 38 39 40 41 42 43 44 45 46 47 48 49 50
000
ASUS43 KMPX 231110
RWRMN
WEATHER ROUNDUP FOR MINNESOTA
NATIONAL WEATHER SERVICE TWIN CITIES/CHANHASSEN MN
500 AM CST THU NOV 23 2017


NOTE: "FAIR" INDICATES FEW OR NO CLOUDS BELOW 12,000 FEET WITH NO
SIGNIFICANT WEATHER AND/OR OBSTRUCTIONS TO VISIBILITY. N/A MEANS
CURRENT SKY AND/OR WEATHER CONDITIONS ARE NOT AVAILABLE.

MNZ060>063-068>070-231200-
   Twin Cities Metro

CITY           SKY/WX    TMP DP  RH WIND       PRES   REMARKS
TWIN CITIES    CLOUDY    23  21  92 CALM      29.94R
ST PAUL        CLOUDY    24  19  81 CALM      29.95R
CRYSTAL        CLOUDY    21  14  74 CALM      29.93R
BLAINE         CLOUDY    21  19  93 CALM      29.93R
LAKEVILLE      CLOUDY    19  18  93 CALM      29.93R
EDEN PRAIRIE   CLOUDY    26  18  71 W3        29.93R
SOUTH ST PAUL  CLOUDY    24  19  80 CALM      29.94R
LAKE ELMO      FAIR      21  19  93 CALM      29.94R
$$
MNZ001>005-007-008-013>017-022>024-027-028-231200-
   Northwest Minnesota

CITY           SKY/WX    TMP DP  RH WIND       PRES   REMARKS
BEMIDJI        CLOUDY    12  10  92 CALM      29.90S
HALLOCK        CLOUDY    16  14  93 S5        29.89S WCI   9
ROSEAU         CLOUDY    14  10  85 SW3       29.87F
WARROAD        CLEAR     16  12  86 SW3       29.86F
THIEF RVR FALL CLOUDY    15  14  95 SW6       29.90F WCI   6
CROOKSTON      CLOUDY    25  21  86 CALM      29.92F
FOSSTON        CLOUDY    12  10  92 S6        29.90F WCI   3
DETROIT LAKES  CLOUDY    19  18  93 S3        29.92F
MOORHEAD       CLOUDY    25  18  74 CALM      29.94F
PARK RAPIDS    CLOUDY    12   7  80 SW3       29.91S
MAHNOMEN       FAIR      16  13  88 S5        29.91F WCI   9
$$
MNZ006-009>011-018-025>026-231200-
   North Central Minnesota

CITY           SKY/WX    TMP DP  RH WIND       PRES   REMARKS
BAUDETTE       MOCLDY    18  15  88 SW6       29.86F WCI  10
FLAG ISLAND    CLOUDY    18  16  93 SW3       29.84F
INTL FALLS     CLOUDY    16  13  88 SW5       29.87F WCI   9
WASKISH        CLOUDY    19  18  93 SW9       29.90R WCI   9
BIG FORK       CLOUDY    12  10  92 CALM      29.89S
LONGVILLE      CLOUDY     9   7  92 CALM      29.92R
GRAND RAPIDS   CLOUDY    15  13  91 CALM      29.92R
CRANE LAKE     CLOUDY    19  18  93 CALM      29.89F
ORR            CLOUDY    18  14  86 CALM      29.85S
COOK           CLOUDY    18  16  93 CALM      29.88F
WALKER         FAIR      12  10  90 CALM      29.91S
$$
MNZ012-019>021-037-231200-
   Northeast Minnesota

CITY           SKY/WX    TMP DP  RH WIND       PRES   REMARKS
DULUTH         CLOUDY    18  16  92 W7        29.87S WCI   9
ELY            CLOUDY    18  16  93 W6        29.87S WCI   9
HIBBING        CLOUDY    19  17  92 SW3       29.89S
EVELETH        CLOUDY    20  16  84 SW3       29.89S
DULUTH HARBOR  CLOUDY    25  21  86 SW6       29.94R WCI  18
TWO HARBORS    CLEAR     21  16  79 W5        29.88R WCI  15
SILVER BAY     CLOUDY    23  19  86 CALM      29.87R
GRAND MARAIS     N/A     26  19  74 W6        29.87F WCI  19
G MARAIS ARPRT CLOUDY    18  14  86 W5        29.80R WCI  11
$$
MNZ029>031-032-039>041-046>048-054>057-064-231200-
   West Central Minnesota

CITY           SKY/WX    TMP DP  RH WIND       PRES   REMARKS
FERGUS FALLS   CLOUDY    18  14  86 CALM      29.98F
WHEATON        CLOUDY    19  18  93 CALM      29.98F
MORRIS         CLOUDY    19  18  93 NW6       29.95R WCI  11
ALEXANDRIA     CLOUDY    19  16  88 CALM      29.95R
ELBOW LAKE     FAIR      17  15  90 CALM      29.96R FOG
WADENA         CLOUDY    16  12  86 CALM      29.93S
GLENWOOD       CLOUDY    21  18  86 NW3       29.95R
APPLETON       CLOUDY    23  19  86 W5        29.97R WCI  17
BENSON         CLOUDY    19  16  86 N3        29.97R
ORTONVILLE     CLOUDY    25  19  80 NW7       29.96S WCI  17
MADISON        CLOUDY    27  23  86 W8        29.98R WCI  18
WILLMAR        FAIR      21  18  86 NW3       29.96R
$$
MNZ033>034-036-042>043-049>051-058-059-231200-
   Central Minnesota

CITY           SKY/WX    TMP DP  RH WIND       PRES   REMARKS
ST CLOUD       CLOUDY    18  15  88 NW3       29.95R
SAUK CENTRE    FAIR      18  15  88 NW3       29.95R
PAYNESVILLE    CLOUDY    17  16  96 CALM      29.95R
AITKIN         CLOUDY     9   5  85 CALM      29.91S
PINE RIVER     CLOUDY     9   5  85 CALM      29.97R
BRAINERD       CLOUDY    11   8  88 CALM      29.94R
STAPLES        CLOUDY    16  12  86 CALM      29.94S
LITTLE FALLS   CLOUDY    18  12  79 CALM      29.95R
LITCHFIELD     CLOUDY    25  19  80 NW3       29.94R
BUFFALO        CLOUDY    21  17  86 CALM      29.94S
MAPLE LAKE     CLOUDY    20  18  93 NW3       29.94R
HUTCHINSON     CLOUDY    22  18  84 W3        29.94S
$$
MNZ037-044-045-052-053-231200-
   East Central Minnesota

CITY           SKY/WX    TMP DP  RH WIND       PRES   REMARKS
PRINCETON      CLOUDY    19  16  86 CALM      29.94R
MORA           CLOUDY    18  14  86 CALM      29.95R
CAMBRIDGE      CLOUDY    19  14  79 CALM      29.94R
RUSH CITY      CLOUDY    16  16 100 CALM      29.94R
MOOSE LAKE     CLOUDY    18  16  93 W3        29.91R FOG
HINCKLEY       FAIR      18  18 100 CALM      29.93R
CLOQUET        CLOUDY    18  14  86 CALM      29.89S
MCGREGOR       CLOUDY    14  10  85 CALM      29.92S
$$
MNZ071>073-080-081-089-090-097-098-231200-
   Southwest Minnesota

CITY           SKY/WX    TMP DP  RH WIND       PRES   REMARKS
MONTEVIDEO     CLOUDY    25  19  80 NW7       29.96R WCI  17
GRANITE FALLS  CLOUDY    24  21  88 W8        29.98S WCI  15
CANBY          CLOUDY    28  23  81 NW7       29.98R WCI  21
MARSHALL       CLOUDY    25  21  85 NW9       29.97R WCI  15
REDWOOD FALLS  CLOUDY    26  19  74 NW8       29.95R WCI  18
OLIVIA         CLOUDY    23  18  80 NW6       29.94R WCI  16
PIPESTONE      CLOUDY    27  21  80 NW3       29.96R
WINDOM         CLOUDY    30  16  55 NW9       29.94S WCI  22
WORTHINGTON    CLOUDY    27  22  81 NW6       29.96R WCI  20
JACKSON        CLOUDY    32  23  69 NW12      29.94S WCI  23
SLAYTON        CLOUDY    26  16  64 W5        29.96R WCI  21
$$
MNZ065>067-074>077-082>085-091>093-231200-
   South Central Minnesota

CITY           SKY/WX    TMP DP  RH WIND       PRES   REMARKS
MANKATO        CLOUDY    27  19  72 NW7       29.93S WCI  19
NEW ULM        CLOUDY    21  16  79 CALM      29.94R
ST JAMES       CLOUDY    28  21  74 W9        29.95R WCI  20
FAIRMONT       CLOUDY    30  23  75 NW12      29.94R WCI  20
GLENCOE        CLOUDY    25  19  77 W3        29.93R
FARIBAULT      CLOUDY    21  18  86 CALM      29.93R
OWATONNA       CLOUDY    23  18  80 CALM      29.92R
WASECA         CLOUDY    23  18  80 W3        29.94R
ALBERT LEA     CLOUDY    27  18  69 W3        29.92R
$$
MNZ078>079-086>088-094>096-231200-
   Southeast Minnesota

CITY           SKY/WX    TMP DP  RH WIND       PRES   REMARKS
ROCHESTER      CLOUDY    24  18  77 S6        29.91S WCI  17
RED WING       CLOUDY    23  18  80 CALM      29.92S
STANTON        CLOUDY    23  18  83 SW3       29.91S
DODGE CENTER   CLOUDY    25  18  74 SW7       29.91R WCI  17
WINONA         PTCLDY    28  23  80 CALM      29.94F
AUSTIN         CLOUDY    25  18  74 CALM      29.91F
PRESTON        CLOUDY    25  17  70 S6        29.90F WCI  18
$$
ABBREVIATIONS USED IN REMARKS
   TC - TEMPERATURES IN CELSIUS
  WCI - WIND CHILL INDEX
   HX - HEAT INDEX
  VSB - VISIBILITY
$$




USA.gov is the U.S. government's official web portal to all federal, state and local government web resources and services.